TIROS N 1 11060U 78096A 10210.76423773 +.00000012 +00000-0 +28396-4 0 05408 2 11060 098.9788 189.5074 0010131 299.4360 060.5802 14.17512918856696 NOAA 6 1 11416U 79057A 10210.69804144 +.00000066 +00000-0 +40387-4 0 03443 2 11416 098.4010 217.9516 0010964 129.9802 230.2341 14.31991715620036 NOAA 9 1 15427U 84123A 10210.48865417 +.00000174 +00000-0 +11032-3 0 02214 2 15427 098.4729 192.3797 0014587 329.5730 030.4588 14.15359580322570 NOAA 10 1 16969U 86073A 10210.63136009 -.00000103 +00000-0 -24269-4 0 01509 2 16969 098.6538 239.1964 0013253 087.9947 272.2779 14.27422036241637 NOAA 11 1 19531U 88089A 10210.81041925 -.00000004 +00000-0 +20286-4 0 01625 2 19531 098.7700 299.1104 0012133 030.2094 329.9796 14.14930930127162 NOAA 12 1 21263U 91032A 10210.88229836 +.00000033 +00000-0 +32803-4 0 06521 2 21263 098.7647 224.0350 0013266 045.5085 314.7175 14.25645864998489 NOAA 14 1 23455U 94089A 10210.81717283 +.00000008 +00000-0 +27812-4 0 01444 2 23455 098.8772 291.2619 0010204 112.4184 247.8070 14.13790538803527 NOAA 15 1 25338U 98030A 10210.91985502 +.00000240 +00000-0 +12152-3 0 04663 2 25338 098.6209 197.0835 0009916 315.2853 044.7519 14.24845035634832 NOAA 16 1 26536U 00055A 10210.86731351 +.00000021 +00000-0 +36349-4 0 09431 2 26536 099.1691 229.3407 0009912 214.1593 145.8925 14.12570536507855 NOAA 17 1 27453U 02032A 10210.78227151 -.00000028 +00000-0 +58403-5 0 09395 2 27453 098.4282 259.5051 0011982 018.1420 342.0162 14.24176506420763 NOAA 18 1 28654U 05018A 10210.76485488 +.00000348 +00000-0 +21702-3 0 04246 2 28654 098.9515 156.9104 0013464 295.4549 064.5234 14.11376088267442 NOAA 19 1 33591U 09005A 10210.76219690 +.00000119 +00000-0 +90273-4 0 06228 2 33591 098.7899 151.9815 0014287 164.8034 195.3587 14.11070043075912